User: anonymous   Login
Location: Barnston
(51.8500°N, 0.4000°E)
Time: 02:53:06
(UTC+00:00)
Language:

Cosmos 1937 Rocket - Orbit

View from above orbital plane
View from above orbital plane
View from above satellite
View from above satellite

Ground track
Ground track

The orbit data is extracted from the following two-line orbital elements,

1 19039U 88029B   24062.55419085  .00000243  00000-0  86753-4 0  9992
2 19039  74.0459 105.7146 0022906  28.0754 332.1630 14.39082971882877
Epoch (UTC): 02 March 2024 13:18:02
Eccentricity: 0.0022906
inclination: 74.0459°
perigee height: 745 km
apogee height: 778 km
right ascension of ascending node: 105.7146°
argument of perigee: 28.0754°
revolutions per day: 14.39082971
mean anomaly at epoch: 332.1630°
orbit number at epoch: 88287

The dashed part of the orbit path shows where the satellite is in the earth's shadow,  

DLR